{"data":{"norad_id":68368,"intl_designator":"2026-061J","name":"RASSVET-3 9","alt_names":[],"object_type":"PAYLOAD","status":"ACTIVE","operator":null,"country":"CIS","launch_date":"2026-03-23","launch_site_code":"PLMSC","launch_vehicle":null,"mission":null,"orbit_class":"UNKNOWN","rcs_meters":null,"size_class":null,"mass_kg":null,"dimensions":null,"purposes":[],"wikipedia_slug":null,"has_3d_model":false,"image_url":null,"decayed_at":null,"tle_current":{"epoch":"2026-05-25T03:40:12.847008Z","epoch_age_seconds":59145,"freshness":"FRESH","line1":"1 68368U 26061J   26145.15292647  .00069075  00000+0  30325-3 0  9992","line2":"2 68368  82.2970  38.2444 0006950 173.4769 186.6592 15.84329112  9904","mean_motion":15.84329112,"eccentricity":0.000695,"inclination_deg":82.297,"raan_deg":38.2444,"arg_perigee_deg":173.4769,"mean_anomaly_deg":186.6592,"bstar":0.00030325,"rev_number":990,"period_min":90.890206403024,"perigee_km":313.56049642294,"apogee_km":322.86842495329,"semimajor_km":6696.3514606881,"source":"CELESTRAK","updated_at":"2026-05-25T13:38:07.765935Z"}}}